Powrót do katalogu

SL-8 DEB

AktywnyLEO
NORAD 14811·DEBRIS·🇷🇺 Russia

Wystrzelony Apr 28, 1982 z Plesetsk Cosmodrome

Loading…

Następne Przeloty (najbliższe 24 godziny)

TLE

ŚwieżeSource: Space-Track

Epoka: Sep 14, 2026, 12:02 UTC

1 14811U 82037D   26257.50204765  .00000816  00000-0  21384-3 0  9992
2 14811  74.0230  78.5890 0016278  70.7541 321.1103 14.50807354319414

Śledź SL-8 DEB w czasie rzeczywistym z AllMySat

Download on the App Store